| time (UTC) | temp F | wind direction | speed MPH | gust MPH | rain 1hr in | rain 24hr in | rain mn in | humidity % | barometer mb |
| 20260905171003 | 76 | 0 | 1.0 | 3.0 | 0.00 | 0.00 | 0.00 | 65 | 1011.6 |
| 20260905170504 | 79 | 44 | 2.0 | 3.0 | 0.00 | 0.00 | 0.00 | 60 | 1011.5 |
| 20260905170100 | 75 | 1 | 1.0 | 5.0 | 0.00 | 0.00 | 0.00 | 66 | 1013.3 |
| 20260905165504 | 75 | 329 | 2.0 | 5.0 | 0.00 | 0.00 | 0.00 | 65 | 1011.5 |
| 20260905165004 | 74 | 16 | 2.0 | 5.0 | 0.00 | 0.00 | 0.00 | 69 | 1011.5 |
| 20260905164555 | 74 | 336 | 1.0 | 4.0 | 0.00 | 0.00 | 0.00 | 66 | 1013.4 |
| 20260905163113 | 77 | 1 | 1.0 | 3.0 | 0.00 | 0.00 | 0.00 | 61 | 1013.3 |
| 20260905163004 | 78 | 0 | 2.0 | 3.0 | 0.00 | 0.00 | 0.00 | 61 | 1011.6 |
| 20260905162504 | 79 | 34 | 1.0 | 3.0 | 0.00 | 0.00 | 0.00 | 62 | 1011.7 |
| 20260905162004 | 76 | 44 | 2.0 | 3.0 | 0.00 | 0.00 | 0.00 | 67 | 1011.6 |
| 20260905161559 | 76 | 1 | 1.0 | 3.0 | 0.00 | 0.00 | 0.00 | 65 | 1013.4 |
| 20260905161503 | 77 | 52 | 1.0 | 3.0 | 0.00 | 0.00 | 0.00 | 65 | 1011.6 |
| 20260905161003 | 75 | 18 | 1.0 | 3.0 | 0.00 | 0.00 | 0.00 | 66 | 1011.6 |
| 20260905160503 | 76 | 20 | 1.0 | 3.0 | 0.00 | 0.00 | 0.00 | 64 | 1011.6 |
| 20260905160056 | 77 | 344 | 1.0 | 4.0 | 0.00 | 0.00 | 0.00 | 60 | 1013.4 |
| 20260905160003 | 78 | 338 | 1.0 | 3.0 | 0.00 | 0.00 | 0.00 | 61 | 1011.9 |
| 20260905155503 | 76 | 322 | 1.0 | 3.0 | 0.00 | 0.00 | 0.00 | 67 | 1011.9 |
| 20260905155004 | 75 | 355 | 2.0 | 3.0 | 0.00 | 0.00 | 0.00 | 66 | 1011.9 |
| 20260905154617 | 76 | 102 | 1.0 | 3.0 | 0.00 | 0.00 | 0.00 | 66 | 1013.6 |
| 20260905154004 | 73 | 58 | 1.0 | 3.0 | 0.00 | 0.00 | 0.00 | 72 | 1012.0 |
| 20260905153504 | 73 | 117 | 1.0 | 3.0 | 0.00 | 0.00 | 0.00 | 69 | 1012.0 |
| 20260905153109 | 73 | 269 | 1.0 | 3.0 | 0.00 | 0.00 | 0.00 | 69 | 1013.7 |
| 20260905152504 | 74 | 8 | 1.0 | 3.0 | 0.00 | 0.00 | 0.00 | 71 | 1012.0 |
| 20260905151608 | 72 | 105 | 0.0 | 3.0 | 0.00 | 0.00 | 0.00 | 71 | 1013.6 |
| 20260905151004 | 72 | 344 | 1.0 | 3.0 | 0.00 | 0.00 | 0.00 | 72 | 1011.9 |
| 20260905150503 | 72 | 52 | 2.0 | 5.0 | 0.00 | 0.00 | 0.00 | 71 | 1011.8 |
| 20260905150057 | 72 | 340 | 1.0 | 4.0 | 0.00 | 0.00 | 0.00 | 71 | 1013.6 |
| 20260905150004 | 73 | 323 | 1.0 | 3.0 | 0.00 | 0.00 | 0.00 | 72 | 1011.8 |
| 20260905145504 | 72 | 57 | 1.0 | 3.0 | 0.00 | 0.00 | 0.00 | 74 | 1011.8 |
| 20260905145004 | 72 | 356 | 1.0 | 3.0 | 0.00 | 0.00 | 0.00 | 73 | 1011.8 |
| 20260905144554 | 72 | 326 | 1.0 | 4.0 | 0.00 | 0.00 | 0.00 | 73 | 1013.6 |
| 20260905144504 | 72 | 69 | 1.0 | 3.0 | 0.00 | 0.00 | 0.00 | 75 | 1011.8 |
| 20260905144004 | 71 | 54 | 2.0 | 3.0 | 0.00 | 0.00 | 0.00 | 74 | 1011.8 |
| 20260905143101 | 71 | 51 | 1.0 | 4.0 | 0.00 | 0.00 | 0.00 | 75 | 1013.5 |
| 20260905143004 | 71 | 49 | 2.0 | 3.0 | 0.00 | 0.00 | 0.00 | 75 | 1011.8 |
| 20260905142503 | 71 | 34 | 1.0 | 3.0 | 0.00 | 0.00 | 0.00 | 77 | 1011.7 |
| 20260905142003 | 71 | 10 | 2.0 | 3.0 | 0.00 | 0.00 | 0.00 | 80 | 1011.7 |
| 20260905141600 | 70 | 63 | 1.0 | 3.0 | 0.00 | 0.00 | 0.00 | 82 | 1013.5 |
| 20260905141003 | 69 | 25 | 1.0 | 3.0 | 0.00 | 0.00 | 0.00 | 83 | 1011.8 |
| 20260905140503 | 69 | 61 | 1.0 | 3.0 | 0.00 | 0.00 | 0.00 | 83 | 1011.8 |
| 20260905140106 | 69 | 0 | 1.0 | 3.0 | 0.00 | 0.00 | 0.00 | 84 | 1013.6 |
| 20260905135006 | 68 | 48 | 1.0 | 2.0 | 0.00 | 0.00 | 0.00 | 91 | 1011.7 |
| 20260905134602 | 67 | 0 | 1.0 | 3.0 | 0.00 | 0.00 | 0.00 | 88 | 1013.6 |
| 20260905134503 | 68 | 315 | 1.0 | 3.0 | 0.00 | 0.00 | 0.00 | 89 | 1011.8 |
| 20260905134004 | 67 | 351 | 1.0 | 2.0 | 0.00 | 0.00 | 0.00 | 91 | 1011.7 |
| 20260905133504 | 66 | 15 | 1.0 | 3.0 | 0.00 | 0.00 | 0.00 | 92 | 1011.7 |
| 20260905133059 | 66 | 1 | 1.0 | 3.0 | 0.00 | 0.00 | 0.00 | 93 | 1013.5 |
| 20260905133004 | 66 | 43 | 1.0 | 2.0 | 0.00 | 0.00 | 0.00 | 93 | 1011.7 |
| 20260905132503 | 66 | 36 | 1.0 | 3.0 | 0.00 | 0.00 | 0.00 | 94 | 1011.7 |
| 20260905132003 | 66 | 33 | 1.0 | 3.0 | 0.00 | 0.00 | 0.00 | 95 | 1011.7 |
| 20260905131603 | 65 | 63 | 1.0 | 3.0 | 0.00 | 0.00 | 0.00 | 95 | 1013.5 |
| 20260905131503 | 65 | 26 | 1.0 | 2.0 | 0.00 | 0.00 | 0.00 | 95 | 1011.6 |
| 20260905131004 | 65 | 104 | 1.0 | 2.0 | 0.00 | 0.00 | 0.00 | 96 | 1011.7 |
| 20260905130504 | 65 | 226 | 1.0 | 2.0 | 0.00 | 0.00 | 0.00 | 96 | 1011.8 |
| 20260905130107 | 64 | 0 | 0.0 | 3.0 | 0.00 | 0.00 | 0.00 | 95 | 1013.6 |
| 20260905130004 | 65 | 74 | 1.0 | 2.0 | 0.00 | 0.00 | 0.00 | 96 | 1011.9 |
| 20260905125504 | 65 | 132 | 0.0 | 2.0 | 0.00 | 0.00 | 0.00 | 96 | 1011.9 |
| 20260905124601 | 64 | 0 | 0.0 | 2.0 | 0.00 | 0.00 | 0.00 | 96 | 1013.7 |
| 20260905124504 | 64 | 116 | 0.0 | 2.0 | 0.00 | 0.00 | 0.00 | 96 | 1012.1 |
| 20260905123504 | 63 | 178 | 1.0 | 2.0 | 0.00 | 0.00 | 0.00 | 96 | 1012.0 |
| 20260905123102 | 62 | 135 | 0.0 | 2.0 | 0.00 | 0.00 | 0.00 | 95 | 1013.7 |
| 20260905123003 | 63 | 51 | 0.0 | 2.0 | 0.00 | 0.00 | 0.00 | 96 | 1011.9 |
| 20260905122503 | 62 | 115 | 0.0 | 1.0 | 0.00 | 0.00 | 0.00 | 96 | 1011.9 |
| 20260905122003 | 62 | 123 | 1.0 | 2.0 | 0.00 | 0.00 | 0.00 | 96 | 1012.0 |
| 20260905121557 | 62 | 117 | 0.0 | 2.0 | 0.00 | 0.00 | 0.00 | 95 | 1013.6 |
| 20260905121503 | 62 | 79 | 0.0 | 2.0 | 0.00 | 0.00 | 0.00 | 96 | 1011.9 |
| 20260905121003 | 62 | 79 | 0.0 | 2.0 | 0.00 | 0.00 | 0.00 | 96 | 1011.9 |
| 20260905120504 | 62 | 160 | 1.0 | 2.0 | 0.00 | 0.00 | 0.00 | 96 | 1011.8 |
| 20260905120004 | 61 | 182 | 1.0 | 2.0 | 0.00 | 0.00 | 0.00 | 96 | 1011.7 |
| 20260905115504 | 61 | 178 | 1.0 | 3.0 | 0.00 | 0.00 | 0.00 | 95 | 1011.6 |
| 20260905115003 | 61 | 177 | 1.0 | 2.0 | 0.00 | 0.00 | 0.00 | 95 | 1011.7 |
| 20260905114555 | 60 | 178 | 1.0 | 2.0 | 0.00 | 0.00 | 0.00 | 95 | 1013.4 |
| 20260905114504 | 61 | 158 | 1.0 | 2.0 | 0.00 | 0.00 | 0.00 | 95 | 1011.6 |
| 20260905114004 | 60 | 182 | 1.0 | 2.0 | 0.00 | 0.00 | 0.00 | 95 | 1011.5 |
| 20260905113503 | 60 | 222 | 0.0 | 1.0 | 0.00 | 0.00 | 0.00 | 95 | 1011.5 |
| 20260905113101 | 60 | 0 | 0.0 | 1.0 | 0.00 | 0.00 | 0.00 | 95 | 1013.1 |
| 20260905113004 | 60 | 65 | 0.0 | 1.0 | 0.00 | 0.00 | 0.00 | 95 | 1011.3 |
| 20260905112503 | 60 | 335 | 0.0 | 1.0 | 0.00 | 0.00 | 0.00 | 95 | 1011.3 |
| 20260905112003 | 60 | 94 | 0.0 | 1.0 | 0.00 | 0.00 | 0.00 | 95 | 1011.4 |
| 20260905111646 | 60 | 0 | 0.0 | 2.0 | 0.00 | 0.00 | 0.00 | 95 | 1013.2 |
| 20260905111503 | 60 | 107 | 0.0 | 2.0 | 0.00 | 0.00 | 0.00 | 95 | 1011.4 |
| 20260905111003 | 60 | 138 | 0.0 | 1.0 | 0.00 | 0.00 | 0.00 | 95 | 1011.4 |
| 20260905110100 | 59 | 0 | 0.0 | 2.0 | 0.00 | 0.00 | 0.00 | 95 | 1013.3 |
| 20260905110004 | 60 | 142 | 1.0 | 1.0 | 0.00 | 0.00 | 0.00 | 95 | 1011.6 |
| 20260905105504 | 60 | 165 | 1.0 | 2.0 | 0.00 | 0.00 | 0.00 | 95 | 1011.6 |
| 20260905104604 | 59 | 213 | 0.0 | 2.0 | 0.00 | 0.00 | 0.00 | 94 | 1013.3 |
| 20260905104004 | 60 | 203 | 1.0 | 2.0 | 0.00 | 0.00 | 0.00 | 95 | 1011.1 |
| 20260905103504 | 60 | 202 | 1.0 | 2.0 | 0.00 | 0.00 | 0.00 | 95 | 1011.0 |
| 20260905103102 | 60 | 223 | 0.0 | 2.0 | 0.00 | 0.00 | 0.00 | 94 | 1012.7 |
| 20260905103003 | 60 | 213 | 1.0 | 2.0 | 0.00 | 0.00 | 0.00 | 95 | 1011.0 |
| 20260905102503 | 60 | 202 | 1.0 | 2.0 | 0.00 | 0.00 | 0.00 | 95 | 1010.9 |
| 20260905101607 | 60 | 117 | 0.0 | 1.0 | 0.00 | 0.00 | 0.00 | 94 | 1012.3 |
| 20260905101503 | 60 | 133 | 1.0 | 1.0 | 0.00 | 0.00 | 0.00 | 95 | 1010.8 |
| 20260905101003 | 60 | 129 | 0.0 | 1.0 | 0.00 | 0.00 | 0.00 | 95 | 1010.9 |
| 20260905100504 | 60 | 179 | 0.0 | 1.0 | 0.00 | 0.00 | 0.00 | 95 | 1010.8 |
| 20260905100104 | 60 | 0 | 0.0 | 2.0 | 0.00 | 0.00 | 0.00 | 94 | 1012.5 |
| 20260905100004 | 60 | 199 | 1.0 | 2.0 | 0.00 | 0.00 | 0.00 | 95 | 1010.8 |
| 20260905095504 | 60 | 233 | 1.0 | 1.0 | 0.00 | 0.00 | 0.00 | 95 | 1010.8 |
| 20260905095003 | 61 | 216 | 1.0 | 1.0 | 0.00 | 0.00 | 0.00 | 95 | 1010.9 |
| 20260905094602 | 60 | 178 | 0.0 | 1.0 | 0.00 | 0.00 | 0.00 | 94 | 1012.5 |
| 20260905094503 | 61 | 198 | 0.0 | 1.0 | 0.00 | 0.00 | 0.00 | 95 | 1010.9 |
| 20260905094004 | 61 | 243 | 0.0 | 1.0 | 0.00 | 0.00 | 0.00 | 95 | 1010.8 |
| 20260905093503 | 61 | 195 | 1.0 | 1.0 | 0.00 | 0.00 | 0.00 | 95 | 1010.9 |
| 20260905093101 | 60 | 0 | 0.0 | 1.0 | 0.00 | 0.00 | 0.00 | 94 | 1012.4 |
| 20260905093004 | 61 | 197 | 1.0 | 1.0 | 0.00 | 0.00 | 0.00 | 94 | 1010.8 |
| 20260905092504 | 61 | 191 | 0.0 | 1.0 | 0.00 | 0.00 | 0.00 | 94 | 1010.8 |
| 20260905091601 | 60 | 178 | 0.0 | 2.0 | 0.00 | 0.00 | 0.00 | 94 | 1012.3 |
| 20260905091503 | 61 | 203 | 1.0 | 2.0 | 0.00 | 0.00 | 0.00 | 94 | 1010.7 |
| 20260905091003 | 61 | 204 | 1.0 | 2.0 | 0.00 | 0.00 | 0.00 | 94 | 1010.6 |
| 20260905090503 | 61 | 148 | 0.0 | 1.0 | 0.00 | 0.00 | 0.00 | 94 | 1010.6 |
| 20260905090058 | 61 | 135 | 0.0 | 1.0 | 0.00 | 0.00 | 0.00 | 94 | 1012.1 |
| 20260905090004 | 61 | 125 | 0.0 | 1.0 | 0.00 | 0.00 | 0.00 | 94 | 1010.5 |
| 20260905085504 | 61 | 147 | 1.0 | 1.0 | 0.00 | 0.00 | 0.00 | 94 | 1010.5 |
| 20260905085003 | 61 | 285 | 0.0 | 1.0 | 0.00 | 0.00 | 0.00 | 94 | 1010.5 |
| 20260905084603 | 61 | 0 | 0.0 | 1.0 | 0.00 | 0.00 | 0.00 | 94 | 1012.1 |
| 20260905084503 | 61 | 215 | 1.0 | 1.0 | 0.00 | 0.00 | 0.00 | 94 | 1010.5 |
| 20260905084003 | 61 | 162 | 0.0 | 1.0 | 0.00 | 0.00 | 0.00 | 94 | 1010.5 |
| 20260905083504 | 61 | 184 | 1.0 | 2.0 | 0.00 | 0.00 | 0.00 | 94 | 1010.6 |
| 20260905083100 | 61 | 206 | 1.0 | 2.0 | 0.00 | 0.00 | 0.00 | 94 | 1012.2 |
| 20260905083004 | 61 | 197 | 1.0 | 2.0 | 0.00 | 0.00 | 0.00 | 94 | 1010.6 |
| 20260905082504 | 61 | 196 | 1.0 | 1.0 | 0.00 | 0.00 | 0.00 | 94 | 1010.6 |
| 20260905082004 | 62 | 176 | 0.0 | 1.0 | 0.00 | 0.00 | 0.00 | 94 | 1010.6 |
| 20260905081558 | 61 | 178 | 0.0 | 1.0 | 0.00 | 0.00 | 0.00 | 94 | 1012.3 |
| 20260905081504 | 62 | 191 | 1.0 | 1.0 | 0.00 | 0.00 | 0.00 | 94 | 1010.7 |
| 20260905080504 | 62 | 195 | 0.0 | 1.0 | 0.00 | 0.00 | 0.00 | 94 | 1010.8 |
| 20260905080122 | 61 | 0 | 0.0 | 1.0 | 0.00 | 0.00 | 0.00 | 93 | 1012.3 |
| 20260905080004 | 62 | 178 | 0.0 | 1.0 | 0.00 | 0.00 | 0.00 | 94 | 1010.7 |
| 20260905075504 | 62 | 208 | 1.0 | 1.0 | 0.00 | 0.00 | 0.00 | 94 | 1010.8 |
| 20260905075004 | 62 | 214 | 0.0 | 1.0 | 0.00 | 0.00 | 0.00 | 94 | 1010.8 |
| 20260905074552 | 62 | 0 | 0.0 | 1.0 | 0.00 | 0.00 | 0.00 | 93 | 1012.4 |
| 20260905074003 | 62 | 219 | 0.0 | 1.0 | 0.00 | 0.00 | 0.00 | 94 | 1010.8 |
| 20260905073504 | 62 | 111 | 0.0 | 1.0 | 0.00 | 0.00 | 0.00 | 94 | 1010.8 |
| 20260905073358 | 62 | 0 | 0.0 | 1.0 | 0.00 | 0.00 | 0.00 | 93 | 1012.3 |
| 20260905071557 | 62 | 223 | 0.0 | 1.0 | 0.00 | 0.00 | 0.00 | 93 | 1012.4 |
| 20260905070138 | 63 | 0 | 0.0 | 2.0 | 0.00 | 0.00 | 0.00 | 93 | 1012.6 |
| 20260905070004 | 63 | 165 | 0.0 | 1.0 | 0.00 | 0.00 | 0.00 | 93 | 1010.9 |
| 20260905065003 | 63 | 150 | 1.0 | 2.0 | 0.00 | 0.00 | 0.00 | 94 | 1010.9 |
| 20260905064606 | 63 | 0 | 0.0 | 1.0 | 0.00 | 0.00 | 0.00 | 93 | 1012.7 |
| 20260905064504 | 63 | 230 | 0.0 | 1.0 | 0.00 | 0.00 | 0.00 | 94 | 1010.9 |
| 20260905064004 | 63 | 195 | 0.0 | 1.0 | 0.00 | 0.00 | 0.00 | 93 | 1010.9 |
| 20260905063504 | 63 | 184 | 0.0 | 1.0 | 0.00 | 0.00 | 0.00 | 93 | 1010.9 |
| 20260905063056 | 63 | 0 | 0.0 | 1.0 | 0.00 | 0.00 | 0.00 | 93 | 1012.7 |
| 20260905063004 | 63 | 132 | 0.0 | 1.0 | 0.00 | 0.00 | 0.00 | 93 | 1011.0 |
| 20260905062504 | 64 | 143 | 0.0 | 1.0 | 0.00 | 0.00 | 0.00 | 93 | 1011.1 |
| 20260905062003 | 64 | 121 | 0.0 | 1.0 | 0.00 | 0.00 | 0.00 | 93 | 1011.1 |
| 20260905061559 | 63 | 46 | 0.0 | 1.0 | 0.00 | 0.00 | 0.00 | 93 | 1012.9 |
| 20260905061503 | 64 | 97 | 0.0 | 1.0 | 0.00 | 0.00 | 0.00 | 93 | 1011.2 |
| 20260905061004 | 64 | 109 | 0.0 | 1.0 | 0.00 | 0.00 | 0.00 | 93 | 1011.1 |
| 20260905060504 | 64 | 82 | 0.0 | 0.0 | 0.00 | 0.00 | 0.00 | 93 | 1011.1 |
| 20260905060054 | 63 | 0 | 0.0 | 0.0 | 0.00 | 0.00 | 0.00 | 93 | 1012.9 |
| 20260905060004 | 64 | 107 | 0.0 | 0.0 | 0.00 | 0.00 | 0.00 | 93 | 1011.2 |
| 20260905055504 | 64 | 55 | 0.0 | 0.0 | 0.00 | 0.00 | 0.00 | 93 | 1011.2 |
| 20260905055003 | 64 | 262 | 0.0 | 1.0 | 0.00 | 0.00 | 0.00 | 93 | 1011.2 |
| 20260905054548 | 64 | 0 | 0.0 | 1.0 | 0.00 | 0.00 | 0.00 | 93 | 1012.9 |
| 20260905054503 | 64 | 277 | 0.0 | 1.0 | 0.00 | 0.00 | 0.00 | 93 | 1011.2 |
| 20260905054004 | 64 | 143 | 0.0 | 1.0 | 0.00 | 0.00 | 0.00 | 93 | 1011.2 |
| 20260905053504 | 64 | 127 | 0.0 | 1.0 | 0.00 | 0.00 | 0.00 | 93 | 1011.2 |
| 20260905053103 | 64 | 0 | 0.0 | 1.0 | 0.00 | 0.00 | 0.00 | 92 | 1012.9 |
| 20260905052503 | 64 | 101 | 0.0 | 1.0 | 0.00 | 0.00 | 0.00 | 93 | 1011.1 |
| 20260905052003 | 64 | 189 | 0.0 | 1.0 | 0.00 | 0.00 | 0.00 | 93 | 1011.1 |
| 20260905051556 | 64 | 178 | 0.0 | 1.0 | 0.00 | 0.00 | 0.00 | 92 | 1012.9 |
| 20260905051504 | 64 | 167 | 0.0 | 1.0 | 0.00 | 0.00 | 0.00 | 92 | 1011.1 |
| 20260905050004 | 65 | 263 | 1.0 | 1.0 | 0.00 | 0.00 | 0.00 | 93 | 1011.2 |
| 20260905045503 | 65 | 63 | 0.0 | 1.0 | 0.00 | 0.00 | 0.00 | 92 | 1011.2 |
| 20260905045004 | 65 | 167 | 1.0 | 1.0 | 0.00 | 0.00 | 0.00 | 92 | 1011.3 |
| 20260905044552 | 64 | 0 | 0.0 | 1.0 | 0.00 | 0.00 | 0.00 | 92 | 1013.1 |
| 20260905044004 | 65 | 131 | 0.0 | 1.0 | 0.00 | 0.00 | 0.00 | 92 | 1011.3 |
| 20260905043059 | 65 | 0 | 0.0 | 1.0 | 0.00 | 0.00 | 0.00 | 92 | 1013.1 |
| 20260905043003 | 65 | 84 | 0.0 | 1.0 | 0.00 | 0.00 | 0.00 | 92 | 1011.3 |
| 20260905042503 | 65 | 151 | 0.0 | 1.0 | 0.00 | 0.00 | 0.00 | 92 | 1011.4 |
| 20260905042004 | 65 | 139 | 0.0 | 1.0 | 0.00 | 0.00 | 0.00 | 92 | 1011.3 |
| 20260905041600 | 65 | 0 | 0.0 | 1.0 | 0.00 | 0.00 | 0.00 | 92 | 1013.1 |
| 20260905041504 | 65 | 125 | 0.0 | 1.0 | 0.00 | 0.00 | 0.00 | 92 | 1011.4 |
| 20260905041003 | 65 | 198 | 0.0 | 1.0 | 0.00 | 0.00 | 0.00 | 93 | 1011.2 |
| 20260905040504 | 65 | 115 | 0.0 | 1.0 | 0.00 | 0.00 | 0.00 | 92 | 1011.1 |
| 20260905040107 | 65 | 0 | 0.0 | 1.0 | 0.00 | 0.00 | 0.00 | 92 | 1013.1 |
| 20260905040004 | 65 | 61 | 0.0 | 1.0 | 0.00 | 0.00 | 0.00 | 92 | 1011.2 |
| 20260905035504 | 65 | 31 | 0.0 | 1.0 | 0.00 | 0.00 | 0.00 | 92 | 1011.2 |
| 20260905035003 | 65 | 135 | 0.0 | 1.0 | 0.00 | 0.00 | 0.00 | 92 | 1011.2 |
| 20260905034610 | 65 | 0 | 0.0 | 2.0 | 0.00 | 0.01 | 0.00 | 91 | 1013.0 |
| 20260905034503 | 65 | 151 | 0.0 | 1.0 | 0.00 | 0.00 | 0.00 | 92 | 1011.2 |
| 20260905034003 | 65 | 170 | 1.0 | 2.0 | 0.00 | 0.01 | 0.00 | 92 | 1011.3 |
| 20260905033117 | 65 | 0 | 0.0 | 2.0 | 0.00 | 0.01 | 0.00 | 91 | 1013.0 |
| 20260905033004 | 65 | 210 | 1.0 | 2.0 | 0.00 | 0.01 | 0.00 | 91 | 1011.2 |
| 20260905032504 | 65 | 184 | 1.0 | 2.0 | 0.00 | 0.01 | 0.00 | 91 | 1011.3 |
| 20260905032004 | 65 | 211 | 1.0 | 1.0 | 0.00 | 0.01 | 0.00 | 91 | 1011.2 |
| 20260905031613 | 65 | 0 | 0.0 | 2.0 | 0.00 | 0.01 | 0.00 | 90 | 1012.9 |
| 20260905031504 | 65 | 61 | 0.0 | 1.0 | 0.00 | 0.01 | 0.00 | 91 | 1011.2 |
| 20260905030503 | 66 | 194 | 0.0 | 1.0 | 0.00 | 0.01 | 0.00 | 91 | 1011.0 |
| 20260905030100 | 65 | 0 | 0.0 | 1.0 | 0.00 | 0.01 | 0.00 | 90 | 1012.8 |
| 20260905030003 | 66 | 163 | 0.0 | 1.0 | 0.00 | 0.01 | 0.00 | 90 | 1011.0 |
| 20260905025503 | 66 | 128 | 1.0 | 1.0 | 0.00 | 0.01 | 0.00 | 90 | 1011.0 |
| 20260905025004 | 66 | 176 | 0.0 | 1.0 | 0.00 | 0.01 | 0.00 | 90 | 1011.1 |
| 20260905024604 | 66 | 0 | 0.0 | 1.0 | 0.00 | 0.01 | 0.00 | 89 | 1012.7 |
| 20260905024004 | 66 | 121 | 0.0 | 1.0 | 0.00 | 0.01 | 0.00 | 89 | 1011.1 |
| 20260905023504 | 66 | 110 | 0.0 | 1.0 | 0.00 | 0.01 | 0.00 | 89 | 1011.1 |
| 20260905023126 | 66 | 152 | 0.0 | 1.0 | 0.00 | 0.01 | 0.00 | 88 | 1012.9 |
| 20260905023003 | 67 | 152 | 0.0 | 1.0 | 0.00 | 0.01 | 0.00 | 89 | 1011.1 |
| 20260905022003 | 67 | 110 | 0.0 | 0.0 | 0.00 | 0.01 | 0.00 | 88 | 1011.1 |
| 20260905021601 | 67 | 0 | 0.0 | 1.0 | 0.00 | 0.01 | 0.00 | 87 | 1012.8 |
| 20260905021503 | 67 | 88 | 0.0 | 1.0 | 0.00 | 0.01 | 0.00 | 88 | 1011.1 |
| 20260905021004 | 68 | 74 | 0.0 | 1.0 | 0.00 | 0.01 | 0.00 | 87 | 1011.1 |
| 20260905020055 | 68 | 135 | 0.0 | 1.0 | 0.00 | 0.01 | 0.00 | 86 | 1012.9 |
| 20260905020003 | 68 | 91 | 0.0 | 1.0 | 0.00 | 0.01 | 0.00 | 87 | 1011.1 |
| 20260905015503 | 68 | 153 | 0.0 | 0.0 | 0.00 | 0.01 | 0.00 | 86 | 1011.0 |
| 20260905015003 | 69 | 68 | 0.0 | 1.0 | 0.00 | 0.01 | 0.00 | 87 | 1011.0 |
| 20260905014553 | 68 | 0 | 0.0 | 1.0 | 0.00 | 0.47 | 0.00 | 85 | 1012.9 |
| 20260905014504 | 69 | 100 | 0.0 | 1.0 | 0.00 | 0.01 | 0.00 | 86 | 1011.1 |
| 20260905014004 | 69 | 119 | 0.0 | 1.0 | 0.00 | 0.01 | 0.00 | 86 | 1011.1 |
| 20260905013504 | 69 | 96 | 0.0 | 1.0 | 0.00 | 0.01 | 0.00 | 85 | 1011.2 |
| 20260905013058 | 69 | 0 | 0.0 | 1.0 | 0.00 | 0.47 | 0.00 | 84 | 1012.9 |
| 20260905013004 | 69 | 133 | 1.0 | 1.0 | 0.00 | 0.01 | 0.00 | 85 | 1011.1 |
| 20260905012504 | 70 | 82 | 0.0 | 1.0 | 0.00 | 0.07 | 0.00 | 84 | 1011.1 |
| 20260905011556 | 69 | 0 | 0.0 | 2.0 | 0.00 | 0.47 | 0.00 | 84 | 1012.9 |
| 20260905011503 | 70 | 153 | 0.0 | 2.0 | 0.00 | 0.31 | 0.00 | 84 | 1011.3 |
| 20260905011004 | 70 | 158 | 0.0 | 1.0 | 0.00 | 0.37 | 0.00 | 84 | 1011.3 |
| 20260905010504 | 70 | 50 | 0.0 | 1.0 | 0.00 | 0.39 | 0.00 | 84 | 1011.3 |
| 20260905010107 | 70 | 0 | 0.0 | 1.0 | 0.00 | 0.47 | 0.00 | 82 | 1013.0 |
| 20260905010004 | 70 | 307 | 0.0 | 1.0 | 0.00 | 0.49 | 0.00 | 82 | 1011.2 |
| 20260905005504 | 70 | 74 | 0.0 | 1.0 | 0.00 | 0.52 | 0.00 | 82 | 1011.2 |
| 20260905004553 | 70 | 0 | 0.0 | 1.0 | 0.00 | 0.54 | 0.00 | 80 | 1012.9 |
| 20260905004003 | 71 | 163 | 0.0 | 1.0 | 0.00 | 0.54 | 0.00 | 80 | 1011.2 |
| 20260905003504 | 71 | 157 | 0.0 | 1.0 | 0.00 | 0.54 | 0.00 | 77 | 1011.2 |
| 20260905003104 | 70 | 0 | 0.0 | 1.0 | 0.00 | 0.54 | 0.00 | 77 | 1012.8 |
| 20260905003004 | 71 | 126 | 0.0 | 1.0 | 0.00 | 0.54 | 0.00 | 77 | 1011.2 |
| 20260905002003 | 71 | 92 | 0.0 | 1.0 | 0.00 | 0.54 | 0.00 | 78 | 1011.2 |
| 20260905001559 | 71 | 0 | 0.0 | 1.0 | 0.00 | 0.54 | 0.00 | 79 | 1012.9 |
| 20260905001503 | 71 | 154 | 0.0 | 1.0 | 0.00 | 0.54 | 0.00 | 80 | 1011.2 |
| 20260905001003 | 71 | 70 | 0.0 | 1.0 | 0.00 | 0.54 | 0.00 | 79 | 1011.0 |
| 20260905000135 | 71 | 0 | 0.0 | 1.0 | 0.00 | 0.54 | 0.00 | 77 | 1012.7 |
| 20260905000004 | 71 | 158 | 0.0 | 1.0 | 0.00 | 0.54 | 0.00 | 78 | 1010.9 |
| 20260904235504 | 72 | 242 | 0.0 | 1.0 | 0.00 | 0.54 | 0.00 | 76 | 1010.9 |
| 20260904235003 | 72 | 276 | 0.0 | 1.0 | 0.00 | 0.54 | 0.00 | 76 | 1010.8 |
| 20260904234602 | 72 | 0 | 0.0 | 1.0 | 0.00 | 0.54 | 0.00 | 75 | 1012.5 |
| 20260904234503 | 72 | 175 | 0.0 | 1.0 | 0.00 | 0.54 | 0.00 | 75 | 1010.7 |
| 20260904234003 | 72 | 169 | 0.0 | 1.0 | 0.00 | 0.54 | 0.00 | 74 | 1010.6 |
| 20260904233503 | 73 | 114 | 0.0 | 2.0 | 0.00 | 0.54 | 0.00 | 73 | 1010.6 |
| 20260904233100 | 72 | 46 | 0.0 | 1.0 | 0.00 | 0.54 | 0.00 | 71 | 1012.3 |
| 20260904232503 | 74 | 86 | 0.0 | 1.0 | 0.00 | 0.54 | 0.00 | 71 | 1010.5 |
| 20260904231557 | 74 | 0 | 0.0 | 1.0 | 0.00 | 0.54 | 0.00 | 70 | 1012.3 |
| 20260904231503 | 74 | 212 | 0.0 | 1.0 | 0.00 | 0.54 | 0.00 | 71 | 1010.7 |
| 20260904231004 | 74 | 137 | 0.0 | 1.0 | 0.00 | 0.54 | 0.00 | 70 | 1010.6 |
| 20260904230504 | 74 | 62 | 0.0 | 1.0 | 0.00 | 0.54 | 0.00 | 71 | 1010.6 |
| 20260904230110 | 74 | 0 | 0.0 | 1.0 | 0.00 | 0.54 | 0.00 | 69 | 1012.2 |
| 20260904230004 | 74 | 253 | 0.0 | 1.0 | 0.00 | 0.54 | 0.00 | 70 | 1010.4 |
| 20260904225503 | 74 | 217 | 0.0 | 1.0 | 0.00 | 0.54 | 0.00 | 69 | 1010.4 |
| 20260904225004 | 75 | 257 | 0.0 | 1.0 | 0.00 | 0.54 | 0.00 | 70 | 1010.3 |
| 20260904224601 | 74 | 0 | 0.0 | 2.0 | 0.00 | 0.54 | 0.00 | 69 | 1011.9 |
| 20260904224503 | 75 | 100 | 0.0 | 2.0 | 0.00 | 0.54 | 0.00 | 69 | 1010.3 |
| 20260904224003 | 75 | 94 | 0.0 | 2.0 | 0.00 | 0.54 | 0.00 | 70 | 1010.4 |
| 20260904223503 | 75 | 70 | 0.0 | 1.0 | 0.00 | 0.54 | 0.00 | 70 | 1010.3 |
| 20260904223059 | 74 | 0 | 0.0 | 2.0 | 0.00 | 0.54 | 0.00 | 69 | 1012.0 |
| 20260904223003 | 75 | 56 | 0.0 | 1.0 | 0.00 | 0.54 | 0.00 | 69 | 1010.3 |
| 20260904222503 | 75 | 253 | 0.0 | 2.0 | 0.00 | 0.54 | 0.00 | 70 | 1010.3 |
| 20260904222004 | 75 | 39 | 1.0 | 2.0 | 0.00 | 0.54 | 0.00 | 69 | 1010.1 |
| 20260904221553 | 75 | 1 | 0.0 | 2.0 | 0.00 | 0.54 | 0.00 | 68 | 1012.0 |
| 20260904221504 | 76 | 339 | 0.0 | 2.0 | 0.00 | 0.54 | 0.00 | 69 | 1010.1 |
| 20260904221004 | 76 | 39 | 1.0 | 2.0 | 0.00 | 0.54 | 0.00 | 68 | 1010.1 |
| 20260904220504 | 76 | 318 | 0.0 | 1.0 | 0.00 | 0.54 | 0.00 | 67 | 1010.0 |
| 20260904220058 | 76 | 0 | 0.0 | 2.0 | 0.00 | 0.54 | 0.00 | 68 | 1011.8 |
| 20260904220004 | 77 | 295 | 0.0 | 2.0 | 0.00 | 0.54 | 0.00 | 67 | 1010.1 |
| 20260904215503 | 77 | 46 | 0.0 | 2.0 | 0.00 | 0.54 | 0.00 | 68 | 1010.1 |
| 20260904215003 | 77 | 20 | 0.0 | 2.0 | 0.00 | 0.54 | 0.00 | 69 | 1010.1 |
| 20260904214552 | 77 | 0 | 0.0 | 2.0 | 0.00 | 0.55 | 0.00 | 65 | 1011.8 |
| 20260904214503 | 77 | 309 | 1.0 | 2.0 | 0.00 | 0.54 | 0.00 | 67 | 1010.0 |
| 20260904214003 | 78 | 15 | 1.0 | 2.0 | 0.00 | 0.54 | 0.00 | 66 | 1010.1 |
| 20260904213503 | 77 | 66 | 0.0 | 2.0 | 0.00 | 0.54 | 0.00 | 66 | 1010.1 |
| 20260904213055 | 77 | 56 | 0.0 | 2.0 | 0.00 | 0.55 | 0.00 | 64 | 1011.9 |
| 20260904213003 | 77 | 348 | 1.0 | 2.0 | 0.00 | 0.54 | 0.00 | 66 | 1010.3 |
| 20260904212503 | 77 | 335 | 0.0 | 1.0 | 0.00 | 0.54 | 0.00 | 64 | 1010.4 |
| 20260904211601 | 78 | 25 | 0.0 | 3.0 | 0.00 | 0.55 | 0.00 | 63 | 1012.1 |
| 20260904211504 | 78 | 72 | 1.0 | 3.0 | 0.00 | 0.54 | 0.00 | 63 | 1010.3 |
| 20260904211004 | 79 | 8 | 1.0 | 2.0 | 0.00 | 0.54 | 0.00 | 63 | 1010.3 |
| 20260904210503 | 79 | 40 | 1.0 | 3.0 | 0.00 | 0.54 | 0.00 | 64 | 1010.4 |
| 20260904210104 | 79 | 117 | 0.0 | 2.0 | 0.00 | 0.55 | 0.00 | 64 | 1012.1 |
| 20260904210003 | 79 | 1 | 0.0 | 2.0 | 0.00 | 0.55 | 0.00 | 65 | 1010.3 |
| 20260904205503 | 78 | 64 | 0.0 | 2.0 | 0.00 | 0.58 | 0.00 | 70 | 1010.3 |
| 20260904205004 | 78 | 337 | 1.0 | 2.0 | 0.00 | 0.63 | 0.00 | 68 | 1010.4 |
| 20260904204553 | 78 | 0 | 0.0 | 3.0 | 0.00 | 0.72 | 0.00 | 68 | 1012.2 |
| 20260904204503 | 78 | 116 | 0.0 | 2.0 | 0.00 | 0.64 | 0.00 | 68 | 1010.5 |
| 20260904204004 | 78 | 51 | 1.0 | 3.0 | 0.00 | 0.64 | 0.00 | 65 | 1010.5 |
| 20260904203504 | 79 | 334 | 1.0 | 2.0 | 0.00 | 0.64 | 0.00 | 66 | 1010.4 |
| 20260904203056 | 79 | 46 | 1.0 | 3.0 | 0.00 | 0.72 | 0.00 | 64 | 1012.2 |
| 20260904203004 | 79 | 354 | 1.0 | 3.0 | 0.00 | 0.64 | 0.00 | 65 | 1010.5 |
| 20260904202504 | 78 | 356 | 1.0 | 3.0 | 0.00 | 0.64 | 0.00 | 66 | 1010.5 |
| 20260904202003 | 80 | 20 | 1.0 | 3.0 | 0.00 | 0.65 | 0.00 | 65 | 1010.4 |
| 20260904201553 | 80 | 0 | 0.0 | 3.0 | 0.00 | 0.72 | 0.00 | 63 | 1012.3 |
| 20260904201503 | 80 | 61 | 1.0 | 2.0 | 0.00 | 0.72 | 0.00 | 63 | 1010.5 |
| 20260904201003 | 81 | 32 | 1.0 | 3.0 | 0.00 | 0.72 | 0.00 | 63 | 1010.6 |
| 20260904200504 | 80 | 333 | 1.0 | 3.0 | 0.00 | 0.72 | 0.00 | 64 | 1010.6 |
| 20260904200004 | 81 | 337 | 1.0 | 3.0 | 0.00 | 0.72 | 0.00 | 62 | 1010.6 |
| 20260904195503 | 84 | 6 | 2.0 | 6.0 | 0.00 | 0.72 | 0.00 | 57 | 1010.9 |
| 20260904195003 | 84 | 52 | 1.0 | 3.0 | 0.00 | 0.72 | 0.00 | 58 | 1010.9 |
| 20260904194554 | 81 | 340 | 1.0 | 4.0 | 0.00 | 0.72 | 0.00 | 63 | 1012.7 |
| 20260904194504 | 82 | 17 | 1.0 | 3.0 | 0.00 | 0.72 | 0.00 | 63 | 1011.0 |
| 20260904194004 | 81 | 22 | 1.0 | 3.0 | 0.00 | 0.72 | 0.00 | 63 | 1011.0 |
| 20260904193504 | 82 | 321 | 2.0 | 3.0 | 0.00 | 0.72 | 0.00 | 57 | 1011.0 |
| 20260904193054 | 83 | 269 | 1.0 | 3.0 | 0.00 | 0.72 | 0.00 | 53 | 1012.8 |
| 20260904193004 | 84 | 298 | 2.0 | 3.0 | 0.00 | 0.72 | 0.00 | 58 | 1011.1 |
| 20260904192503 | 82 | 308 | 2.0 | 3.0 | 0.00 | 0.72 | 0.00 | 60 | 1011.1 |
| 20260904192004 | 82 | 1 | 1.0 | 3.0 | 0.00 | 0.72 | 0.00 | 59 | 1011.1 |
| 20260904191554 | 81 | 23 | 2.0 | 5.0 | 0.00 | 0.72 | 0.00 | 62 | 1012.9 |
| 20260904191504 | 82 | 337 | 2.0 | 5.0 | 0.00 | 0.72 | 0.00 | 58 | 1011.2 |
| 20260904191004 | 83 | 24 | 2.0 | 3.0 | 0.00 | 0.72 | 0.00 | 56 | 1011.2 |
| 20260904190504 | 84 | 330 | 1.0 | 3.0 | 0.00 | 0.72 | 0.00 | 55 | 1011.2 |
| 20260904190059 | 84 | 89 | 0.0 | 5.0 | 0.00 | 0.72 | 0.00 | 57 | 1013.1 |
| 20260904190003 | 84 | 74 | 1.0 | 3.0 | 0.00 | 0.72 | 0.00 | 57 | 1011.2 |
| 20260904185504 | 82 | 305 | 1.0 | 5.0 | 0.00 | 0.72 | 0.00 | 56 | 1011.2 |
| 20260904185004 | 82 | 13 | 2.0 | 3.0 | 0.00 | 0.72 | 0.00 | 56 | 1011.2 |
| 20260904184556 | 81 | 1 | 1.0 | 4.0 | 0.00 | 0.72 | 0.00 | 57 | 1013.2 |
| 20260904184003 | 82 | 50 | 1.0 | 3.0 | 0.00 | 0.72 | 0.00 | 58 | 1011.3 |
| 20260904183503 | 82 | 24 | 1.0 | 3.0 | 0.00 | 0.72 | 0.00 | 63 | 1011.3 |
| 20260904183109 | 81 | 0 | 1.0 | 4.0 | 0.00 | 0.72 | 0.00 | 58 | 1013.3 |
| 20260904183003 | 81 | 270 | 1.0 | 3.0 | 0.00 | 0.72 | 0.00 | 60 | 1011.5 |
| 20260904182504 | 82 | 65 | 1.0 | 3.0 | 0.00 | 0.72 | 0.00 | 62 | 1011.5 |
| 20260904182004 | 83 | 240 | 2.0 | 3.0 | 0.00 | 0.72 | 0.00 | 56 | 1011.5 |
| 20260904181552 | 82 | 319 | 1.0 | 4.0 | 0.00 | 0.72 | 0.00 | 54 | 1013.4 |
| 20260904181504 | 83 | 329 | 2.0 | 3.0 | 0.00 | 0.72 | 0.00 | 58 | 1011.6 |
| 20260904181004 | 82 | 99 | 1.0 | 3.0 | 0.00 | 0.72 | 0.00 | 60 | 1011.7 |
| 20260904180503 | 80 | 182 | 1.0 | 2.0 | 0.00 | 0.72 | 0.00 | 63 | 1011.8 |
| 20260904180100 | 78 | 223 | 0.0 | 2.0 | 0.00 | 0.72 | 0.00 | 65 | 1013.6 |
| 20260904180004 | 78 | 239 | 0.0 | 2.0 | 0.00 | 0.72 | 0.00 | 68 | 1011.7 |
| 20260904175504 | 77 | 139 | 0.0 | 2.0 | 0.00 | 0.72 | 0.00 | 69 | 1011.8 |
| 20260904175003 | 77 | 233 | 1.0 | 2.0 | 0.00 | 0.72 | 0.00 | 69 | 1011.7 |
| 20260904174553 | 77 | 269 | 0.0 | 3.0 | 0.00 | 0.72 | 0.00 | 68 | 1013.7 |
| 20260904174503 | 77 | 35 | 0.0 | 3.0 | 0.00 | 0.72 | 0.00 | 69 | 1011.8 |
| 20260904173503 | 82 | 271 | 1.0 | 2.0 | 0.00 | 0.72 | 0.00 | 63 | 1012.0 |
| 20260904173102 | 83 | 72 | 1.0 | 3.0 | 0.00 | 0.72 | 0.00 | 61 | 1013.8 |
| 20260904173004 | 84 | 321 | 1.0 | 2.0 | 0.00 | 0.72 | 0.00 | 60 | 1012.0 |
| 20260904172504 | 79 | 244 | 1.0 | 3.0 | 0.00 | 0.72 | 0.00 | 64 | 1012.1 |
| 20260904171611 | 78 | 0 | 0.0 | 3.0 | 0.00 | 0.72 | 0.00 | 70 | 1014.0 |
| 20260904171504 | 78 | 346 | 1.0 | 2.0 | 0.00 | 0.72 | 0.00 | 69 | 1012.2 |